Location: Culleoka
(33.1312°N, 96.4919°W)
Time: 04:03:54
(UTC+00:00)

H-2A R/B - Pass Details

Date: 09 July 2022
Orbit: 577 x 651 km, 98.5° (Epoch: 07 August)

Event Time Altitude Azimuth Distance (km) Brightness Sun altitude
Rises 03:07:17 0° 4° (N) 2,960 6.1 -16.2°
Reaches altitude 10° 03:09:33 10° 358° (N) 2,053 5.3 -16.6°
Maximum altitude 03:13:48 43° 287° (WNW) 911 3.4 -17.2°
Drops below altitude 10° 03:18:02 10° 216° (SW) 2,049 4.6 -17.9°
Sets 03:20:19 0° 209° (SSW) 2,954 5.4 -18.2°
